When you browse on this site, cookies collect data to enhance your experience and personalize the content and advertising you see.
Visit our Privacy Policy to learn more. By continuing to use the site, you agree to this use of cookies and data.
  • în România
  • Lista ţărilor
  • Pe 7 zile
  • Temperatura apei
  • Meteo pe hartă
  • Widget-uri
  • user-avatar
    Intrare

    Meteo pe oră la Sceaux

    Astăzi, 4 Iunie, Joi

    Timp Temperatura Precipitaţii Vânt Presiune Umiditate
    00:00 +14°C° 0.4 mm 4 m/s 741 mmHg 76%
    01:00 +14°C° 0.1 mm 4 m/s 741 mmHg 78%
    02:00 +13°C° 0.1 mm 3 m/s 741 mmHg 79%
    03:00 +13°C° 0.1 mm 3 m/s 741 mmHg 81%
    04:00 +13°C° 0.1 mm 3 m/s 740 mmHg 82%
    05:00 +13°C° 0.1 mm 3 m/s 740 mmHg 83%
    06:00 +13°C° 0.1 mm 3 m/s 740 mmHg 83%
    07:00 +13°C° 0.2 mm 3 m/s 741 mmHg 80%
    08:00 +13°C° 0.2 mm 3 m/s 741 mmHg 77%
    09:00 +14°C° 0.2 mm 4 m/s 741 mmHg 74%
    10:00 +14°C° 0.1 mm 3 m/s 741 mmHg 73%
    11:00 +14°C° 0.1 mm 3 m/s 741 mmHg 73%
    12:00 +14°C° 0.1 mm 3 m/s 741 mmHg 72%
    13:00 +14°C° 0.1 mm 4 m/s 741 mmHg 72%
    14:00 +14°C° 0.1 mm 4 m/s 741 mmHg 72%
    15:00 +14°C° 0.1 mm 4 m/s 741 mmHg 72%
    16:00 +14°C° 0.1 mm 4 m/s 741 mmHg 73%
    17:00 +14°C° 0.1 mm 4 m/s 741 mmHg 74%
    18:00 +13°C° 0.1 mm 4 m/s 741 mmHg 74%
    19:00 +12°C° 0.1 mm 4 m/s 742 mmHg 77%
    20:00 +12°C° 0.1 mm 3 m/s 742 mmHg 80%
    21:00 +11°C° 0.1 mm 3 m/s 743 mmHg 83%
    22:00 +10°C° 0 mm 3 m/s 743 mmHg 83%
    23:00 +10°C° 0 mm 3 m/s 743 mmHg 82%

    Mâine, 5 Iunie, Vineri

    Timp Temperatura Precipitaţii Vânt Presiune Umiditate
    00:00 +9°C° 0 mm 3 m/s 743 mmHg 82%
    01:00 +9°C° 0 mm 3 m/s 743 mmHg 82%
    02:00 +9°C° 0 mm 3 m/s 742 mmHg 83%
    03:00 +9°C° 0 mm 3 m/s 742 mmHg 83%
    04:00 +8°C° 0.2 mm 4 m/s 742 mmHg 85%
    05:00 +8°C° 0.2 mm 5 m/s 741 mmHg 86%
    06:00 +9°C° 0.2 mm 5 m/s 741 mmHg 87%
    07:00 +9°C° 0.5 mm 6 m/s 741 mmHg 88%
    08:00 +10°C° 0.5 mm 6 m/s 741 mmHg 89%
    09:00 +10°C° 0.5 mm 6 m/s 740 mmHg 90%
    10:00 +13°C° 0.3 mm 6 m/s 740 mmHg 81%
    11:00 +15°C° 0.3 mm 7 m/s 741 mmHg 71%
    12:00 +16°C° 0.3 mm 7 m/s 741 mmHg 62%
    13:00 +16°C° 0.1 mm 7 m/s 741 mmHg 62%
    14:00 +16°C° 0.1 mm 7 m/s 740 mmHg 62%
    15:00 +16°C° 0.1 mm 7 m/s 740 mmHg 62%
    16:00 +14°C° 0.3 mm 6 m/s 740 mmHg 69%
    17:00 +13°C° 0.3 mm 5 m/s 740 mmHg 75%
    18:00 +12°C° 0.3 mm 4 m/s 740 mmHg 82%
    19:00 +12°C° 0.2 mm 4 m/s 741 mmHg 82%
    20:00 +11°C° 0.2 mm 3 m/s 741 mmHg 83%
    21:00 +11°C° 0.2 mm 3 m/s 742 mmHg 83%
    22:00 +11°C° 0 mm 3 m/s 742 mmHg 83%
    23:00 +10°C° 0 mm 4 m/s 742 mmHg 83%

    Poimâine, 6 Iunie, Sâmbătă

    Timp Temperatura Precipitaţii Vânt Presiune Umiditate
    00:00 +10°C° 0 mm 4 m/s 743 mmHg 83%
    01:00 +8°C° 0 mm 4 m/s 743 mmHg 83%
    02:00 +9°C° 0 mm 3 m/s 743 mmHg 83%
    03:00 +8°C° 0 mm 3 m/s 743 mmHg 83%
    04:00 +9°C° 0 mm 3 m/s 743 mmHg 82%
    05:00 +10°C° 0 mm 3 m/s 743 mmHg 80%
    06:00 +10°C° 0 mm 4 m/s 743 mmHg 78%
    07:00 +11°C° 0.1 mm 4 m/s 743 mmHg 75%
    08:00 +12°C° 0.1 mm 4 m/s 743 mmHg 71%
    09:00 +13°C° 0.1 mm 5 m/s 744 mmHg 67%
    10:00 +14°C° 0.1 mm 5 m/s 744 mmHg 60%
    11:00 +15°C° 0.1 mm 6 m/s 744 mmHg 54%
    12:00 +16°C° 0.1 mm 6 m/s 744 mmHg 47%
    13:00 +16°C° 0 mm 6 m/s 744 mmHg 48%
    14:00 +16°C° 0 mm 6 m/s 744 mmHg 48%
    15:00 +15°C° 0 mm 6 m/s 744 mmHg 49%
    16:00 +15°C° 0 mm 6 m/s 744 mmHg 51%
    17:00 +14°C° 0 mm 6 m/s 744 mmHg 54%
    18:00 +13°C° 0 mm 5 m/s 745 mmHg 56%
    19:00 +12°C° 0 mm 5 m/s 745 mmHg 59%
    20:00 +11°C° 0 mm 4 m/s 746 mmHg 63%
    21:00 +10°C° 0 mm 4 m/s 746 mmHg 67%
    22:00 +8°C° 0 mm 4 m/s 746 mmHg 69%
    23:00 +8°C° 0 mm 4 m/s 746 mmHg 71%

    7 Iunie, Duminică

    Timp Temperatura Precipitaţii Vânt Presiune Umiditate
    00:00 +7°C° 0 mm 4 m/s 746 mmHg 73%
    01:00 +7°C° 0 mm 4 m/s 746 mmHg 74%
    02:00 +7°C° 0 mm 4 m/s 747 mmHg 75%
    03:00 +7°C° 0 mm 4 m/s 747 mmHg 76%
    04:00 +7°C° 0 mm 4 m/s 747 mmHg 75%
    05:00 +8°C° 0 mm 4 m/s 747 mmHg 74%
    06:00 +8°C° 0 mm 4 m/s 747 mmHg 73%
    07:00 +11°C° 0 mm 4 m/s 747 mmHg 68%
    08:00 +12°C° 0 mm 5 m/s 748 mmHg 63%
    09:00 +14°C° 0 mm 5 m/s 748 mmHg 58%
    10:00 +15°C° 0.2 mm 5 m/s 748 mmHg 57%
    11:00 +15°C° 0.2 mm 5 m/s 748 mmHg 56%
    12:00 +16°C° 0.2 mm 5 m/s 748 mmHg 55%
    13:00 +16°C° 0.7 mm 5 m/s 748 mmHg 58%
    14:00 +16°C° 0.7 mm 5 m/s 748 mmHg 60%
    15:00 +16°C° 0.7 mm 5 m/s 748 mmHg 63%
    16:00 +16°C° 0.8 mm 5 m/s 748 mmHg 66%
    17:00 +15°C° 0.8 mm 4 m/s 748 mmHg 69%
    18:00 +15°C° 0.8 mm 4 m/s 748 mmHg 72%
    19:00 +14°C° 0.2 mm 3 m/s 749 mmHg 75%
    20:00 +13°C° 0.2 mm 3 m/s 749 mmHg 78%
    21:00 +13°C° 0.2 mm 2 m/s 749 mmHg 82%
    22:00 +12°C° 0 mm 2 m/s 750 mmHg 82%
    23:00 +12°C° 0 mm 2 m/s 750 mmHg 83%

    8 Iunie, Luni

    Timp Temperatura Precipitaţii Vânt Presiune Umiditate
    00:00 +10°C° 0 mm 2 m/s 750 mmHg 84%
    01:00 +10°C° 0 mm 2 m/s 750 mmHg 85%
    02:00 +10°C° 0 mm 2 m/s 750 mmHg 86%
    03:00 +10°C° 0 mm 2 m/s 750 mmHg 87%
    04:00 +10°C° 0.1 mm 2 m/s 750 mmHg 87%
    05:00 +11°C° 0.1 mm 3 m/s 750 mmHg 88%
    06:00 +11°C° 0.1 mm 3 m/s 750 mmHg 88%
    07:00 +12°C° 0.1 mm 3 m/s 751 mmHg 87%
    08:00 +12°C° 0.1 mm 3 m/s 751 mmHg 86%
    09:00 +13°C° 0.1 mm 3 m/s 751 mmHg 85%
    10:00 +13°C° 0.2 mm 3 m/s 751 mmHg 82%
    11:00 +14°C° 0.2 mm 3 m/s 751 mmHg 79%
    12:00 +16°C° 0.2 mm 3 m/s 751 mmHg 77%
    13:00 +15°C° 0.4 mm 4 m/s 752 mmHg 73%
    14:00 +17°C° 0.4 mm 4 m/s 752 mmHg 70%
    15:00 +18°C° 0.4 mm 4 m/s 752 mmHg 67%
    16:00 +17°C° 0 mm 4 m/s 752 mmHg 67%
    17:00 +17°C° 0 mm 4 m/s 752 mmHg 67%
    18:00 +16°C° 0 mm 3 m/s 752 mmHg 67%
    19:00 +14°C° 0 mm 3 m/s 753 mmHg 70%
    20:00 +13°C° 0 mm 3 m/s 753 mmHg 74%
    21:00 +12°C° 0 mm 3 m/s 754 mmHg 77%
    22:00 +13°C° 0 mm 2 m/s 754 mmHg 79%
    23:00 +12°C° 0 mm 2 m/s 754 mmHg 81%

    9 Iunie, Marţi

    Timp Temperatura Precipitaţii Vânt Presiune Umiditate
    00:00 +10°C° 0 mm 2 m/s 754 mmHg 84%
    01:00 +10°C° 0 mm 2 m/s 754 mmHg 83%
    02:00 +10°C° 0 mm 2 m/s 754 mmHg 83%
    03:00 +10°C° 0 mm 2 m/s 754 mmHg 82%
    04:00 +10°C° 0 mm 2 m/s 755 mmHg 80%
    05:00 +10°C° 0 mm 2 m/s 755 mmHg 78%
    06:00 +12°C° 0 mm 2 m/s 755 mmHg 75%
    07:00 +13°C° 0 mm 2 m/s 755 mmHg 68%
    08:00 +14°C° 0 mm 2 m/s 756 mmHg 60%
    09:00 +16°C° 0 mm 2 m/s 756 mmHg 53%
    10:00 +17°C° 0 mm 3 m/s 756 mmHg 51%
    11:00 +17°C° 0 mm 3 m/s 756 mmHg 50%
    12:00 +18°C° 0 mm 4 m/s 756 mmHg 48%
    13:00 +18°C° 0 mm 4 m/s 756 mmHg 48%
    14:00 +18°C° 0 mm 4 m/s 756 mmHg 49%
    15:00 +18°C° 0 mm 4 m/s 755 mmHg 50%
    16:00 +18°C° 0 mm 4 m/s 755 mmHg 52%
    17:00 +17°C° 0 mm 3 m/s 755 mmHg 55%
    18:00 +17°C° 0 mm 3 m/s 755 mmHg 57%
    19:00 +14°C° 0 mm 3 m/s 756 mmHg 59%
    20:00 +14°C° 0 mm 2 m/s 756 mmHg 61%
    21:00 +13°C° 0 mm 2 m/s 756 mmHg 63%
    22:00 +12°C° 0 mm 2 m/s 756 mmHg 66%
    23:00 +12°C° 0 mm 1 m/s 756 mmHg 69%
    Arată mai mult